Mombasa, Kenya

12:09 PM EAT on January 22, 2017 (GMT +0300)
Mombasa

Weather History for HKMO - September, 2012

Change the Weather History Date:

Tuesday, September 11, 2012

  Actual Average Record
Temperature  
Mean Temperature 78 °F -  
Max Temperature 82 °F 86 °F 84 °F (2004)
Min Temperature 73 °F 68 °F 64 °F (1996)
Cooling Degree Days 12    
Growing Degree Days 28 (Base 50)    
Moisture  
Dew Point 72 °F    
Average Humidity 81    
Maximum Humidity 94    
Minimum Humidity 65    
Precipitation  
Precipitation 0.03 in 0.11 in - ()
Sea Level Pressure  
Sea Level Pressure 30.00 in    
Wind  
Wind Speed 6 mph ()    
Max Wind Speed 12 mph    
Max Gust Speed -    
Visibility 7.7 miles    
Events Rain    
Averages and records for this station are not official NWS values.
T = Trace of Precipitation, MM = Missing Value Source: Averaged Metar Reports

Daily Weather History Graph

Daily Weather History Graph

Search for Another Location

Airport or City:

Trip Planner

Search our weather history database for the weather conditions in past years. The results will help you decide how hot, cold, wet, or windy it might be!

Date:

Astronomy

Sep. 11, 2012 Rise Set
Actual Time 6:16 AM EAT 6:20 PM EAT
Civil Twilight 5:55 AM EAT 6:40 PM EAT
Nautical Twilight 5:31 AM EAT 7:04 PM EAT
Astronomical Twilight 5:07 AM EAT 7:29 PM EAT
Moon 2:10 AM EAT (9/11) 2:23 PM EAT (9/11)
Length of Visible Light 12h 45m
Length of Day
12h 04m
Waning Crescent, 24% of the Moon is Illuminated
Sep 11
Waning Crescent
Sep 16
New
Sep 22
First Quarter
Sep 30
Full
Oct 8
Last Quarter

Hourly Weather History & Observations

Time (EAT) Temp. Heat Index Dew Point Humidity Pressure Visibility Wind Dir Wind Speed Gust Speed Precip Events Conditions
12:00 AM 75.2 °F - 71.6 °F 89% 30.01 in 6.2 mi SSE 5.8 mph - N/A   Scattered Clouds
3:00 AM 75.2 °F - 71.6 °F 89% 29.95 in 6.2 mi South 4.6 mph - N/A   Mostly Cloudy
4:00 AM 75.2 °F - 73.4 °F 94% 29.98 in 6.2 mi South 3.5 mph - N/A   Mostly Cloudy
5:00 AM 75.2 °F - 71.6 °F 89% 29.98 in 6.2 mi ESE 3.5 mph - N/A Rain Light Rain Showers
6:00 AM 75.2 °F - 73.4 °F 94% 30.01 in 5.0 mi Calm Calm - N/A   Mostly Cloudy
7:00 AM 75.2 °F - 73.4 °F 94% 30.01 in 6.2 mi SE 4.6 mph - N/A   Mostly Cloudy
8:00 AM 77.0 °F - 73.4 °F 89% 30.04 in 6.2 mi SSE 6.9 mph - N/A   Mostly Cloudy
9:00 AM 79 °F - 73 °F 76% 30.06 in 19 mi SE 6.9 mph - -   Mostly Cloudy
9:00 AM 78.8 °F - 73.4 °F 83% 30.06 in 6.2 mi SE 6.9 mph - N/A   Mostly Cloudy
10:00 AM 80.6 °F 84.6 °F 71.6 °F 74% 30.06 in 6.2 mi ESE 9.2 mph - N/A   Mostly Cloudy
11:00 AM 80.6 °F 84.6 °F 71.6 °F 74% 30.04 in 6.2 mi SE 11.5 mph - N/A   Mostly Cloudy
12:00 PM 80.6 °F 84.6 °F 71.6 °F 74% 30.01 in 6.2 mi SE 10.4 mph - N/A   Mostly Cloudy
1:00 PM 82.4 °F 87.2 °F 71.6 °F 70% 30.01 in 6.2 mi SE 10.4 mph - N/A   Scattered Clouds
2:00 PM 82.4 °F 86.3 °F 69.8 °F 66% 29.98 in 6.2 mi SE 11.5 mph - N/A   Scattered Clouds
3:00 PM 82 °F - 72 °F 65% 29.96 in 19 mi SE 9.2 mph - -   Partly Cloudy
3:00 PM 82.4 °F 87.2 °F 71.6 °F 70% 29.95 in 6.2 mi SE 9.2 mph - N/A   Scattered Clouds
4:00 PM 82.4 °F 86.3 °F 69.8 °F 66% 29.95 in 6.2 mi SSE 9.2 mph - N/A   Mostly Cloudy
5:00 PM 80.6 °F 84.6 °F 71.6 °F 74% 29.95 in 6.2 mi South 9.2 mph - N/A   Mostly Cloudy
6:00 PM 78.8 °F - 71.6 °F 78% 29.95 in 6.2 mi SSE 10.4 mph - N/A   Mostly Cloudy
7:00 PM 78.8 °F - 73.4 °F 83% 29.95 in 6.2 mi SSE 5.8 mph - N/A   Scattered Clouds
8:00 PM 77.0 °F - 71.6 °F 83% 29.98 in 6.2 mi South 5.8 mph - N/A   Scattered Clouds
9:00 PM 77 °F - 73 °F 83% 30.00 in 19 mi South 6.9 mph - -   Partly Cloudy
9:00 PM 77.0 °F - 73.4 °F 89% 30.01 in 6.2 mi South 6.9 mph - N/A   Scattered Clouds
10:00 PM 77.0 °F - 73.4 °F 89% 30.01 in 6.2 mi South 8.1 mph - N/A   Scattered Clouds
11:00 PM 77.0 °F - 73.4 °F 89% 30.01 in 6.2 mi SSE 6.9 mph - N/A   Partly Cloudy